Weather History for Trinidad, CO

Change the Weather History Date:

Tuesday, November 20, 2012

  Actual Average Record
Temperature  
Mean Temperature 49 °F 38 °F  
Max Temperature 68 °F 54 °F 72 °F (2003)
Min Temperature 29 °F 24 °F -5 °F (1975)
Degree Days  
Heating Degree Days 16 27  
Month to date heating degree days 368 443  
Since 1 July heating degree days 836 944  
Cooling Degree Days 0 0  
Month to date cooling degree days 0 0  
Year to date cooling degree days 1175 719  
Moisture  
Dew Point 9 °F    
Average Humidity 26    
Maximum Humidity 43    
Minimum Humidity 8    
Precipitation  
Precipitation 0.00 in 0.02 in 0.60 in (1997)
Month to date precipitation T 0.50  
Year to date precipitation 13.10  
Sea Level Pressure  
Sea Level Pressure 30.14 in    
Wind  
Wind Speed 9 mph (SW)    
Max Wind Speed 17 mph    
Max Gust Speed 22 mph    
Visibility 10 miles    
Events      
T = Trace of Precipitation, MM = Missing Value Source: NWS Daily Summary

Daily Weather History Graph

Daily Weather History Graph

Search for Another Location

Airport:

Trip Planner

Search our weather history database for the weather conditions in past years. The results will help you decide how hot, cold, wet, or windy it might be!

Date:

Astronomy

Nov. 20, 2012 Rise Set
Actual Time 6:42 AM MST 4:43 PM MST
Civil Twilight 6:14 AM MST 5:11 PM MST
Nautical Twilight 5:42 AM MST 5:43 PM MST
Astronomical Twilight 5:11 AM MST 6:14 PM MST
Moon 12:22 PM MST (11/20) No Moon Set
Length of Visible Light 10h 57m
Length of Day
10h 01m
First Quarter, 52% of the Moon is Illuminated
Nov 20
First Quarter
Nov 28
Full
Dec 6
Last Quarter
Dec 13
New
Dec 19
First Quarter

Hourly Weather History & Observations

Time (MST) Temp. Windchill Dew Point Humidity Pressure Visibility Wind Dir Wind Speed Gust Speed Precip Events Conditions
12:54 AM 34.0 °F 26.0 °F 9.0 °F 35% 30.17 in 10.0 mi West 10.4 mph - N/A   Clear
1:54 AM 33.1 °F 26.1 °F 10.0 °F 38% 30.18 in 10.0 mi West 8.1 mph - N/A   Clear
2:54 AM 30.0 °F 21.1 °F 10.0 °F 43% 30.19 in 10.0 mi WNW 10.4 mph - N/A   Clear
3:54 AM 30.0 °F 21.1 °F 10.0 °F 43% 30.20 in 10.0 mi West 10.4 mph - N/A   Clear
4:54 AM 34.0 °F 25.5 °F 10.9 °F 38% 30.21 in 10.0 mi WSW 11.5 mph - N/A   Clear
5:54 AM 32.0 °F 23.6 °F 10.9 °F 42% 30.24 in 10.0 mi West 10.4 mph - N/A   Clear
6:54 AM 36.0 °F 26.7 °F 12.0 °F 37% 30.25 in 10.0 mi WSW 15.0 mph - N/A   Clear
7:54 AM 39.9 °F 32.5 °F 12.0 °F 32% 30.28 in 10.0 mi WSW 12.7 mph - N/A   Clear
8:54 AM 50.0 °F - 12.9 °F 23% 30.23 in 10.0 mi WSW 8.1 mph - N/A   Clear
9:54 AM 57.9 °F - 12.9 °F 17% 30.21 in 10.0 mi Variable 4.6 mph - N/A   Clear
10:54 AM 61.0 °F - 12.9 °F 15% 30.18 in 10.0 mi SSE 8.1 mph - N/A   Clear
11:54 AM 64.9 °F - 10.9 °F 12% 30.14 in 10.0 mi Variable 4.6 mph - N/A   Clear
12:54 PM 66.9 °F - 5.0 °F 9% 30.08 in 10.0 mi SSE 5.8 mph - N/A   Clear
1:54 PM 66.9 °F - 5.0 °F 9% 30.06 in 10.0 mi Calm Calm - N/A   Clear
2:54 PM 68.0 °F - 6.1 °F 9% 30.06 in 10.0 mi East 8.1 mph - N/A   Clear
3:54 PM 64.0 °F - 7.0 °F 11% 30.08 in 10.0 mi South 11.5 mph - N/A   Clear
4:54 PM 54.0 °F - 7.0 °F 15% 30.11 in 10.0 mi WSW 9.2 mph - N/A   Clear
5:54 PM 51.1 °F - 7.0 °F 17% 30.13 in 10.0 mi WSW 10.4 mph - N/A   Clear
6:54 PM 48.0 °F - 7.0 °F 19% 30.14 in 10.0 mi SSW 4.6 mph - N/A   Clear
7:54 PM 48.9 °F - 8.1 °F 19% 30.12 in 10.0 mi WSW 9.2 mph - N/A   Clear
8:54 PM 50.0 °F - 8.1 °F 18% 30.07 in 10.0 mi SW 10.4 mph - N/A   Clear
9:54 PM 46.9 °F - 9.0 °F 21% 30.05 in 10.0 mi SSW 9.2 mph - N/A   Clear
10:54 PM 46.9 °F - 9.0 °F 21% 30.03 in 10.0 mi SW 4.6 mph - N/A   Clear
11:54 PM 45.0 °F 38.9 °F 10.0 °F 24% 30.00 in 10.0 mi SW 12.7 mph - N/A   Clear